Location: *
(0.1100°N, 5.5000°E)
Time: 12:27:41
(UTC+00:00)

Cosmos 1818 - Pass Details

Date: 02 December 2023
Orbit: 771 x 801 km, 65.0° (Epoch: 02 March)

Event Time Altitude Azimuth Distance (km) Brightness Sun altitude
Exits shadow 04:44:35 - 334° (NNW) 2,965 6.1 -9.9°
Reaches altitude 10° 04:46:10 10° 333° (NNW) 2,361 5.6 -9.6°
Maximum altitude 04:51:35 73° 249° (WSW) 830 3.6 -8.3°
Drops below altitude 10° 04:56:59 10° 164° (SSE) 2,355 6.6 -7.0°
Sets 04:59:25 0° 162° (SSE) 3,281 7.4 -6.5°
